Погода в Ояме

Япония     36°18′54″N   139°48′12″E
темп.,
°C
ветер,
м/с
пор.,
м/с
влажн.,
%
обл.,
%
осадки,
мм/ч
давл.,
гПа
погр.,
м
26 января, ср
ср2600:00+6св1261100 0.0 1019531
03:00+5ссв2367100 0.0 1018476
06:00+4ссв2362100 0.0 1018398
09:00+4ссв245686 0.0 1018422
12:00+8св12447 0.0 1016758
15:00+9ююв11413 0.0 1014943
18:00+8ююв23575 0.0 1015307
21:00+6ююз24735 0.0 1016160
27 января, чт
чт2700:00+5зюз11780 0.0 101516
03:00+4з1164100 0.0 101647
06:00+4ссз22647 0.0 101654
09:00+5юз015430 0.0 1017303
12:00+10зсз36230 0.0 10151301
15:00+10зсз58230 0.0 10141264
18:00+8зсз24243 0.0 1016385
21:00+5юз1334100 0.0 1017352
28 января, пт
пт2800:00+4зсз253826 0.0 1017373
03:00+3ссз114022 0.0 1017117
06:00+2зсз11450 0.0 101743
09:00+4сз114111 0.0 1018398
12:00+7з13295 0.0 1016891
15:00+9зюз35220 0.0 10142063
18:00+8з23267 0.0 1015150
21:00+6св243849 0.0 1016345
29 января, сб
сб2900:00+4ссв124015 0.0 1015156
03:00+3в01455 0.0 101567
06:00+2св12487 0.0 1016104
09:00+3св11420 0.0 1016459
12:00+7зюз113159 0.0 1015740
15:00+8ююз34307 0.0 10131312
18:00+6ююв447626 0.0 1014528
21:00+5св117168 0.0 101477
30 января, вс
вс3000:00+4ссв355658 0.0 1014393
03:00+3с2454100 0.0 1014305
06:00+3св1351100 0.0 1015194
09:00+3св2344100 0.0 1016574
12:00+6в1135100 0.0 10151135
15:00+7в113025 0.0 10141217
18:00+6вюв233252 0.0 1015585
21:00+4вюв23380 0.0 1017406